軌道要素
Epoch 2021 Mar. 7.0 TT = JDT 2459280.5
T 2021 Mar. 12.23534 TT Rudenko
q 1.3207560 (2000.0) P Q
z -0.0003508 Peri. 186.76943 -0.27299239 -0.82904835
+/-0.0000061 Node 279.98358 +0.90423776 -0.04797636
e 1.0004633 Incl. 29.70362 +0.32837360 -0.55711498
From 344 observations 2020 July 1-Nov. 14, mean residual 0".7.
|